Terug naar catalogus

JILIN-1 GAOFEN 06A 12 XING

ActiefWetenschapSSO
NORAD 57023·PAYLOAD·🇨🇳 China
Deze satellietnaam is nog niet bevestigd door officiële bronnen.

Gelanceerd Jun 15, 2023 vanaf Taiyuan Satellite Launch Center

Loading…

Volgende Passages (komende 24 uur)

TLE

VersSource: Space-Track

Epoch: Sep 14, 2026, 13:22 UTC

1 57023U 23085V   26257.55703230  .00012217  00000-0  35222-3 0  9992
2 57023  97.5019  10.6371 0006538 110.2432 249.9515 15.35849453180408

Volg JILIN-1 GAOFEN 06A 12 XING in realtime met AllMySat

Download on the App Store